975  
ASUS41 KPHI 232213  
RWRPHI  
 
REGIONAL WEATHER ROUNDUP  
NATIONAL WEATHER SERVICE MOUNT HOLLY NJ  
600 PM EDT SUN JUL 23 2017  
 
NOTE: "FAIR" INDICATES FEW OR NO CLOUDS BELOW 12,000 FEET WITH NO  
SIGNIFICANT WEATHER AND/OR S TO VISIBILITY
.  
 
* = STATION DOES NOT REPORT PRECIPITATION (E.G. RAIN, SNOW, ETC.)  
OR FOG.
 
 
NJZ015>026-232300-  
SOUTHERN NEW JERSEY  
 
CITY SKY/WX TMP DP RH WIND PRES REMARKS
 
POMONA LGT RAIN 75 73 93 E9 29.80F  
MILLVILLE CLOUDY 75 75 100 SE10 29.79S  
WRIGHTSTOWN PTSUNNY 78 66 67 N8 29.79S  
MOUNT HOLLY CLOUDY 80 68 66 SE9 29.79R  
TRENTON MOSUNNY 79 67 66 E12 29.79F  
 

 
NJZ001>014-232300-  
NORTHERN NEW JERSEY  
 
CITY SKY/WX TMP DP RH WIND PRES REMARKS
 
SUSSEX CLOUDY 75 68 78 S5 29.82S  
ANDOVER* N/A 73 69 87 CALM 29.82F  
MORRISTOWN CLOUDY 79 66 65 S6 29.83R  
NEWARK CLOUDY 78 67 68 SE10G16 29.82S  
TETERBORO CLOUDY 77 68 73 SE7 29.81S  
CALDWELL CLOUDY 77 32 19 SE7 29.83R  
SOMERVILLE CLOUDY 80 70 71 CALM 29.79S  
ALLAIRE* MOSUNNY 76 67 73 E14 29.84S  
TOMS RIVER* PTSUNNY 78 68 71 SE9 29.83S  
 

 
PAZ043-044-047-054-055-060>062-066>071-232300-  
EASTERN PENNSYLVANIA  
 
CITY SKY/WX TMP DP RH WIND PRES REMARKS
 
PHILADELPHIA LGT RAIN 83 69 62 SE12 29.77F  
NORTH PHILA PTSUNNY 82 67 60 E13 29.80S  
BLUE BELL* MOSUNNY 81 70 69 E9 29.80S  
DOYLESTOWN MOSUNNY 80 67 64 VRB5 29.79F  
QUAKERTOWN* MOSUNNY 81 68 65 SE6 29.81S  
PERKASIE* FAIR 77 66 69 SE5 29.81S  
POTTSTOWN MOSUNNY 79 70 74 VRB6 29.79F  
LANCASTER LGT RAIN 82 75 79 S13 29.75S  
COATESVILLE CLOUDY 79 72 78 SE8G14 29.80R  
READING CLOUDY 83 73 72 SE8 29.75S  
ALLENTOWN MOSUNNY 82 66 58 E10 29.78F  
MOUNT POCONO CLOUDY 70 68 93 SE8 29.86S  
HAZLETON N/A 79 68 69 SE7 N/A  
LEHIGHTON CLOUDY 79 68 69 SE3 29.79S  
WILKES BARRE CLOUDY 78 67 68 SE8 29.79S  
 

 
DEZALL-MDZ008-012-015-019-020-232300-  
DELAWARE AND EASTERN MARYLAND  
 
CITY SKY/WX TMP DP RH WIND PRES REMARKS
 
WILMINGTON TSTM 78 76 93 S5 29.78R  
DOVER MOSUNNY 77 77 100 SE5 29.77R  
GEORGETOWN CLOUDY 82 76 81 CALM 29.79R  
EASTON PTSUNNY 81 73 78 CALM 29.81R  
ABERDEEN CLOUDY 75 73 94 NE6 29.78R THUNDER  
PATUXENT CLOUDY 82 77 84 E6 29.77F HX 90  
OCEAN CITY MOSUNNY 79 76 90 CALM 29.77F  
WALLOPS ISLAND CLOUDY 85 76 74 SW5 29.78F HX 94  
CAMBRIDGE MOSUNNY 81 73 78 VRB3 29.78S  
SALISBURY MOSUNNY 79 75 89 CALM 29.78F  
 

 
PAZ001-021-NYZ056-072-MDZ011-DCZ001-232300-  
OTHER NEARBY LOCATIONS  
 
CITY SKY/WX TMP DP RH WIND PRES REMARKS
 
HARRISBURG TSTM 73 72 96 VRB7G20 29.75R VSB 1/2  
STATE COLLEGE MOSUNNY 82 68 61 W7 29.76S  
WILLIAMSPORT PTSUNNY 82 72 71 E13 29.72S  
BINGHAMTON PTSUNNY 73 64 73 SE8 29.81S  
NEW YORK CITY CLOUDY 76 69 79 SE7 29.86R  
BALTIMORE HVY RAIN 74 73 97 W10 29.78R FOG  
WASHINGTON DC PTSUNNY 84 77 79 E3 29.78R HX 94  
 

 
 
 
CLICK HERE TO GO TO PREVIOUS BULLETINS.

The Nexlab PA Page
The Nexlab NJ Page
The Nexlab DE Page
The Nexlab MD Page Main Text Page